Flag for U.S.A. Weather past 2 weeks in Cocoa Beach, Florida, U.S.A.

Now
73 °F

Clear.


Feels Like: 70 °F
Forecast: 74 / 82 °F
Wind: 2 mph from Northeast

Location: Cocoa / Patrick Air Force Base

Current Time: Sep 22, 2014 at 11:14:41 PM

Latest Report: Sep 22, 2014 at 10:58 PM


Visibility: 10 mi

Pressure: 30.03 "Hg

Humidity: 93%

Dew point: 71 °F

Location of Cocoa BeachLocation

Historic Weather in Cocoa Beach — Graph

°F

Cocoa Beach temperature yesterday

Maximum temperature yesterday: 82 °F (at 11:58 AM)
Minimum temperature yesterday: 73 °F (at 5:58 AM)
Average temperature yesterday: 78 °F

Past Weeks' High & Low Weather Summary

 TemperatureHumidityPressure
High89 °F (Sep 16, 1:58 PM)100% (Sep 20, 2:03 PM)30.19 "Hg (Sep 20, 2:03 PM)
Low71 °F (Sep 20, 2:58 AM)56% (Sep 15, 2:58 PM)29.87 "Hg (Sep 20, 4:59 PM)
Average81 °F81%30.02 "Hg
* Reported Sep 7 9:58 PM — Sep 22 9:58 PM, Cocoa Beach, Weather by CustomWeather, © 2014

Note: Actual official high and low records may vary slightly from our data, if they occured in-between our weather recording intervals... More about our weather records

Advertising

Cocoa Beach weather history for previous 24 hours

 ConditionsComfort  
Time TempWeatherWind HumidityBarometerVisibility
9:58 PM
Sep 22
72 °FClear.3 mph94%30.05 "Hg10 mi
8:58 PM72 °FClear.9 mph95%30.03 "Hg10 mi
7:58 PM73 °FLight rain. Overcast.10 mph94%30.02 "Hg9 mi
6:58 PM73 °FLight rain. Fog.14 mph96%30.03 "Hg6 mi
6:02 PM73 °FThunderstorms. Fog.16 mph94%30.01 "Hg1 mi
5:58 PM72 °FThunderstorms. Fog.21 mph94%30.01 "Hg1 mi
5:04 PM79 °FThundershowers. Scattered clouds.22 mph84%29.98 "Hg10 mi
4:59 PM79 °FThundershowers. Sunny.2 mph84%29.97 "Hg10 mi
3:58 PM81 °FPassing clouds.7 mph87%29.98 "Hg10 mi
2:58 PM78 °FDrizzle. Broken clouds.3 mph82%30.00 "Hg10 mi
1:58 PM83 °FPassing clouds.9 mph76%30.02 "Hg10 mi
12:58 PM83 °FSunny.8 mph77%30.03 "Hg10 mi
11:58 AM82 °FSunny.5 mph78%30.05 "Hg10 mi
10:58 AM81 °FPassing clouds.2 mph79%30.06 "Hg10 mi
9:58 AM80 °FPassing clouds.3 mph83%30.07 "Hg10 mi
8:58 AM78 °FSunny.6 mph91%30.05 "Hg10 mi
7:58 AM76 °FPassing clouds.6 mph95%30.04 "Hg10 mi
6:58 AM76 °FClear.7 mph95%30.02 "Hg10 mi
5:58 AM76 °FClear.5 mph93%30.01 "Hg10 mi
4:58 AM76 °FPassing clouds.6 mph90%29.99 "Hg10 mi
3:58 AM76 °FClear.5 mph91%29.99 "Hg10 mi
2:58 AM76 °FClear.7 mph91%30.00 "Hg10 mi
1:58 AM76 °FClear.8 mph90%30.02 "Hg10 mi
12:58 AM76 °FClear.9 mph90%30.04 "Hg10 mi
11:58 PM
Sep 21
77 °FClear.10 mph92%30.05 "Hg10 mi
Weather by CustomWeather, © 2014

See weather overviewHow to use our weather pages